Regional Weather Roundup
Issued by NWS Midland/Odessa, TX

Skip options and go directly to product.
Home | Oldest Version | Previous Version | Current Version | All | Graphics & Text | Save Text | Print | Product List | Glossary On

Skip product version selection by date and time.   
874
ASUS44 KMAF 270410
RWRMAF
MIDLAND AREA WEATHER ROUNDUP
NATIONAL WEATHER SERVICE MIDLAND TX
1100 PM CDT FRI AUG 26 2016

...IN SOUTHWEST TEXAS AND SOUTHEAST NEW MEXICO...

CITY           SKY/WX    TMP DP  RH WIND       PRES   REMARKS
ALPINE         CLEAR     65  59  81 CALM      30.23S
ANDREWS        NOT AVBL
ARTESIA        CLEAR     72  64  78 S6        30.10S
BIG SPRING     CLOUDY    73  68  85 E6        30.10R
CARLSBAD       CLEAR     72  62  71 SE6       30.07R
DRYDEN           N/A     71  69  93 NW6       30.05F
FORT STOCKTON  CLOUDY    70  61  73 S14       30.08R
GUAD PASS      CLOUDY    66  56  70 NE18      30.21R
HOBBS          CLEAR     68  68 100 E6        30.13R
MARFA          PTCLDY   N/A N/A N/A E8        30.20R
MIDLAND AIRPK  CLOUDY    75  65  70 S3        30.10R
MIDLAND INTL   CLOUDY    74  64  71 S5        30.09R
ODESSA         CLOUDY    74  62  66 S7        30.10R
PECOS          CLOUDY    72  64  74 SE6       30.06R
PRESIDIO       NOT AVBL
SEMINOLE       CLOUDY    68  66  93 CALM      30.12R
SNYDER           N/A     73  66  78 E3        30.08R
WINK           CLOUDY    75  62  64 SE7       30.07R
$$
...OTHER STATIONS IN TEXAS...

CITY           SKY/WX    TMP DP  RH WIND       PRES   REMARKS
ABILENE        RAIN      76  72  87 W6        30.07R
AMARILLO       LGT RAIN  65  59  81 S12       30.15R
AUSTIN         PTCLDY    77  73  87 SE5       30.02F
BROWNSVILLE    CLEAR     81  75  82 SE5       29.96R
CORPUS CHRISTI PTCLDY    84  76  76 E13       29.97R
DALLAS FTW     CLOUDY    78  69  73 S7        30.02R
DEL RIO        MOCLDY    81  69  67 E7        29.98R
EL PASO        PTCLDY    75  59  57 N20       30.10R
HOUSTON INT    CLOUDY    76  73  91 VRB3      30.01R
LUBBOCK        CLEAR     69  63  81 S8        30.11R
SAN ANGELO     MOCLDY    73  68  84 W3        30.04S
SAN ANTONIO    MOCLDY    78  72  81 E5        30.03R
WACO           CLOUDY    75  74  96 E6        30.03R
WICHITA FALLS  NOT AVBL
$$
...OTHER LOCATIONS IN NEW MEXICO...

CITY           SKY/WX    TMP DP  RH WIND       PRES   REMARKS
ALAMAGORDO     PTCLDY    68  55  64 CALM      30.11F
ALBUQUERQUE    PTCLDY    70  48  45 SE6       30.16S
CANNON AFB     TSTM      64  64 100 S8        30.16R
CLOVIS         CLOUDY    63  55  77 SE7       30.15S
HOLLOMAN AFB   NOT AVBL
ROSWELL        PTCLDY    73  59  61 NW12      30.09S
RUIDOSO          N/A     57  50  77 S9        30.32S
SANTA FE       CLOUDY    66  51  58 SE8       30.22R
TRUTH OR CONSE LGT RAIN  72  52  49 W8        30.15R
TUCUMCARI      PTCLDY    66  58  75 S9        30.11R
$$

USA.gov is the U.S. government's official web portal to all federal, state and local government web resources and services.